Location: Unspecified
(47.1121°N, 116.3927°W)
Time: 15:11:40
(UTC-07:00)

ISS - Pass Details

Date: 23 May 2019
Orbit: 407 x 418 km, 51.6° (Epoch: 25 June)

Event Time Altitude Azimuth Distance (km) Brightness Sun altitude
Rises 22:04:33 0° 275° (W) 2,354 0.7 -13.4°
Reaches altitude 10° 22:06:44 10° 283° (WNW) 1,494 -0.2 -13.7°
Maximum altitude 22:09:53 38° 354° (N) 660 -2.2 -14.0°
Drops below altitude 10° 22:13:04 10° 64° (ENE) 1,502 -1.1 -14.3°
Sets 22:15:16 0° 73° (ENE) 2,368 -0.1 -14.5°
Enters shadow 22:15:18 - 73° (ENE) 2,380 -0.1 -14.5°
